QTR921 NZAA-OTHH

Flight info

Callsign QTR921
Flight time N/A
Altitude 28000
Route MADEP N774 OLREL/N0497F300 N774 TESAT A576 POLEV/N0500F320 A576 AS T11 BRM G222 METUM/N0497F340 G222 SAPDA L896 OBMAT M766 SELSU/N0491F360 M766 KAT R461 MDI M300 ORISA/N0486F380 M300 EMURU N563 SODEX/N0500F340 N563 UMIBU P899 TOVOX
Aircraft B77L/H-SDE1E2E3FGHIJ2J3J4J5M1RWXY/LB1D1

Departure

Time 2026-04-30 21:41
Airport Auckland International Airport (NZAA)

Arrival

Time N/A
Airport Hamad International Airport (OTHH)
Time Latitude Longitude Altitude Speed Heading
2026-04-30 21:05 -37.00541 174.77696 164 ft 0 kts 341°
2026-04-30 21:31 -37.00564 174.77706 29 ft 4 kts 341°
2026-04-30 21:32 -37.00610 174.77726 29 ft 4 kts 327°
2026-04-30 21:32 -37.00627 174.77750 28 ft 4 kts 290°
2026-04-30 21:32 -37.00632 174.77782 28 ft 4 kts 267°
2026-04-30 21:32 -37.00628 174.77813 26 ft 2 kts 251°
2026-04-30 21:33 -37.00633 174.77796 26 ft 4 kts 251°
2026-04-30 21:33 -37.00642 174.77765 30 ft 0 kts 251°
2026-04-30 21:35 -37.00654 174.77721 30 ft 8 kts 251°
2026-04-30 21:35 -37.00672 174.77656 30 ft 8 kts 251°
2026-04-30 21:35 -37.00696 174.77579 30 ft 12 kts 241°
2026-04-30 21:36 -37.00750 174.77549 30 ft 9 kts 169°
2026-04-30 21:36 -37.00808 174.77570 30 ft 11 kts 162°
2026-04-30 21:37 -37.01059 174.77679 30 ft 13 kts 162°
2026-04-30 21:37 -37.01143 174.77713 30 ft 13 kts 162°
2026-04-30 21:37 -37.01222 174.77745 30 ft 11 kts 173°
2026-04-30 21:37 -37.01273 174.77683 30 ft 11 kts 251°
2026-04-30 21:38 -37.01298 174.77591 30 ft 11 kts 250°
2026-04-30 21:38 -37.01324 174.77498 30 ft 11 kts 251°
2026-04-30 21:38 -37.01349 174.77405 30 ft 11 kts 251°
2026-04-30 21:38 -37.01375 174.77313 30 ft 11 kts 250°
2026-04-30 21:39 -37.01401 174.77221 30 ft 11 kts 250°
2026-04-30 21:39 -37.01430 174.77136 30 ft 10 kts 232°
2026-04-30 21:39 -37.01495 174.77105 30 ft 10 kts 191°
2026-04-30 21:39 -37.01562 174.77088 30 ft 9 kts 191°
2026-04-30 21:40 -37.01610 174.77093 30 ft 6 kts 151°
2026-04-30 21:40 -37.01615 174.77129 30 ft 4 kts 75°
2026-04-30 21:40 -37.01615 174.77133 30 ft 0 kts 73°
2026-04-30 21:40 -37.01606 174.77167 30 ft 23 kts 73°
2026-04-30 21:41 -37.01468 174.77679 30 ft 100 kts 71°
2026-04-30 21:41 -37.01163 174.78782 30 ft 167 kts 71°
2026-04-30 21:41 -37.00725 174.80325 261 ft 195 kts 72°
2026-04-30 21:41 -37.00292 174.81952 895 ft 199 kts 73°
2026-04-30 21:42 -36.99872 174.83612 1536 ft 202 kts 73°
2026-04-30 21:42 -36.99424 174.85286 2194 ft 204 kts 72°
2026-04-30 21:42 -36.98979 174.86986 2619 ft 209 kts 73°
2026-04-30 21:42 -36.98542 174.88775 2955 ft 221 kts 73°
2026-04-30 21:43 -36.98028 174.90648 3280 ft 234 kts 71°
2026-04-30 21:43 -36.97631 174.91938 3456 ft 245 kts 69°
2026-04-30 21:43 -36.96756 174.94605 4097 ft 252 kts 68°
2026-04-30 21:43 -36.96063 174.96641 4727 ft 254 kts 69°
2026-04-30 21:44 -36.95336 174.98686 5153 ft 259 kts 57°
2026-04-30 21:44 -36.93977 175.00173 5572 ft 269 kts 20°
2026-04-30 21:44 -36.92151 175.00400 6139 ft 272 kts 348°
2026-04-30 21:44 -36.90393 174.99521 6663 ft 277 kts 329°
2026-04-30 21:45 -36.88818 174.98050 7177 ft 281 kts 320°
2026-04-30 21:45 -36.87372 174.96450 7710 ft 283 kts 319°
2026-04-30 21:45 -36.85895 174.94796 8201 ft 288 kts 319°
2026-04-30 21:45 -36.84450 174.93056 8650 ft 290 kts 307°
2026-04-30 21:46 -36.83641 174.90746 8958 ft 298 kts 275°
2026-04-30 21:46 -36.83699 174.88136 9233 ft 305 kts 263°
2026-04-30 21:46 -36.83892 174.85466 9660 ft 312 kts 264°
2026-04-30 21:46 -36.84072 174.82745 10211 ft 317 kts 264°
2026-04-30 21:47 -36.84257 174.79935 10405 ft 335 kts 264°
2026-04-30 21:47 -36.84451 174.76960 10579 ft 353 kts 264°
2026-04-30 21:47 -36.84652 174.73831 10807 ft 368 kts 264°
2026-04-30 21:47 -36.84857 174.70607 11277 ft 376 kts 264°
2026-04-30 21:48 -36.85063 174.67329 11813 ft 381 kts 264°
2026-04-30 21:48 -36.85268 174.64024 12458 ft 383 kts 264°
2026-04-30 21:48 -36.85474 174.60702 13127 ft 384 kts 264°
2026-04-30 21:48 -36.85679 174.57364 13765 ft 387 kts 264°
2026-04-30 21:49 -36.85886 174.53998 14372 ft 390 kts 264°
2026-04-30 21:49 -36.86092 174.50606 14908 ft 393 kts 264°
2026-04-30 21:49 -36.86298 174.47214 15479 ft 395 kts 264°
2026-04-30 21:49 -36.86507 174.43782 16019 ft 398 kts 264°
2026-04-30 21:50 -36.86717 174.40318 16530 ft 401 kts 265°
2026-04-30 21:50 -36.86926 174.36834 17094 ft 403 kts 265°
2026-04-30 21:50 -36.87135 174.33334 17655 ft 405 kts 264°
2026-04-30 21:50 -36.87343 174.29817 18154 ft 409 kts 265°
2026-04-30 21:51 -36.87553 174.26265 18679 ft 411 kts 264°
2026-04-30 21:51 -36.87660 174.24446 18932 ft 412 kts 264°
2026-04-30 21:51 -36.87940 174.19660 19558 ft 415 kts 265°
2026-04-30 21:51 -36.88150 174.16057 20011 ft 417 kts 264°
2026-04-30 21:52 -36.88360 174.12434 20465 ft 419 kts 265°
2026-04-30 21:52 -36.88567 174.08854 20965 ft 419 kts 265°
2026-04-30 21:52 -36.88775 174.05220 21411 ft 422 kts 265°
2026-04-30 21:52 -36.88984 174.01555 21787 ft 426 kts 265°
2026-04-30 21:53 -36.89058 173.97852 22204 ft 427 kts 274°
2026-04-30 21:53 -36.88614 173.94175 22624 ft 429 kts 281°
2026-04-30 21:53 -36.88015 173.90516 23068 ft 431 kts 281°
2026-04-30 21:53 -36.87408 173.86842 23470 ft 434 kts 281°
2026-04-30 21:54 -36.87015 173.84390 23746 ft 435 kts 281°
2026-04-30 21:54 -36.86255 173.79449 24257 ft 439 kts 280°
2026-04-30 21:54 -36.85880 173.76919 24508 ft 440 kts 280°
2026-04-30 21:54 -36.85154 173.71939 25056 ft 440 kts 279°
2026-04-30 21:55 -36.84612 173.68185 25460 ft 441 kts 279°
2026-04-30 21:55 -36.84067 173.64415 25839 ft 441 kts 279°
2026-04-30 21:55 -36.83698 173.61868 26132 ft 441 kts 279°
2026-04-30 21:55 -36.83149 173.58094 26504 ft 442 kts 279°
2026-04-30 21:56 -36.82598 173.54319 26919 ft 442 kts 279°
2026-04-30 21:56 -36.82046 173.50546 27333 ft 442 kts 279°
2026-04-30 21:56 -36.81492 173.46760 27569 ft 446 kts 279°
2026-04-30 21:56 -36.80938 173.42992 27859 ft 448 kts 279°
2026-04-30 21:57 -36.80375 173.39179 28321 ft 447 kts 279°
2026-04-30 21:57 -36.79811 173.35351 28526 ft 452 kts 279°
2026-04-30 21:57 -36.78664 173.27549 28611 ft 464 kts 279°
2026-04-30 21:58 -36.77481 173.19514 28607 ft 475 kts 279°
2026-04-30 21:58 -36.76280 173.11410 28591 ft 476 kts 279°
2026-04-30 21:59 -36.75073 173.03304 28600 ft 476 kts 279°
2026-04-30 22:00 -36.73250 172.91135 28605 ft 476 kts 279°
2026-04-30 22:00 -36.71418 172.78995 28598 ft 475 kts 279°
2026-04-30 22:01 -36.70190 172.70910 28595 ft 475 kts 280°
2026-04-30 22:01 -36.68958 172.62835 28602 ft 474 kts 280°
2026-04-30 22:02 -36.67719 172.54752 28595 ft 474 kts 280°
2026-04-30 22:02 -36.66477 172.46684 28595 ft 474 kts 280°
2026-04-30 22:03 -36.65230 172.38623 28588 ft 474 kts 280°
2026-04-30 22:03 -36.63977 172.30563 28592 ft 475 kts 280°
2026-04-30 22:04 -36.62716 172.22485 28586 ft 475 kts 280°
2026-04-30 22:05 -36.60821 172.10424 28592 ft 476 kts 280°
2026-04-30 22:05 -36.59545 172.02348 28577 ft 476 kts 280°
2026-04-30 22:06 -36.58262 171.94263 28586 ft 476 kts 280°
2026-04-30 22:06 -36.56328 171.82141 28584 ft 477 kts 280°
2026-04-30 22:07 -36.55030 171.74060 28584 ft 476 kts 280°
2026-04-30 22:07 -36.53727 171.65974 28588 ft 477 kts 280°
2026-04-30 22:08 -36.52418 171.57894 28581 ft 477 kts 280°
2026-04-30 22:08 -36.51102 171.49807 28583 ft 478 kts 280°
2026-04-30 22:09 -36.49779 171.41712 28582 ft 478 kts 280°
2026-04-30 22:09 -36.48448 171.33604 28580 ft 479 kts 280°
2026-04-30 22:10 -36.47113 171.25504 28572 ft 479 kts 280°
2026-04-30 22:10 -36.45772 171.17406 28573 ft 478 kts 280°
2026-04-30 22:11 -36.43751 171.05271 28578 ft 478 kts 280°
2026-04-30 22:12 -36.42395 170.97172 28576 ft 479 kts 280°
2026-04-30 22:12 -36.41044 170.89141 28559 ft 479 kts 280°
2026-04-30 22:13 -36.39678 170.81044 28571 ft 480 kts 280°
2026-04-30 22:13 -36.38330 170.72941 28572 ft 480 kts 278°
2026-04-30 22:14 -36.37642 170.64734 28577 ft 478 kts 272°
2026-04-30 22:14 -36.37272 170.56516 28568 ft 476 kts 272°
2026-04-30 22:15 -36.36854 170.48321 28573 ft 476 kts 272°
2026-04-30 22:15 -36.36355 170.40113 28582 ft 478 kts 272°
2026-04-30 22:16 -36.35818 170.31887 28576 ft 479 kts 273°
2026-04-30 22:17 -36.34715 170.15363 28562 ft 481 kts 273°
2026-04-30 22:17 -36.33879 170.02963 28570 ft 481 kts 272°
2026-04-30 22:18 -36.33031 169.90559 28568 ft 481 kts 273°
2026-04-30 22:19 -36.32168 169.78164 28553 ft 481 kts 273°
2026-04-30 22:20 -36.31298 169.65822 28568 ft 482 kts 274°
2026-04-30 22:20 -36.30410 169.53397 28564 ft 483 kts 273°
2026-04-30 22:21 -36.29809 169.45106 28564 ft 483 kts 273°
2026-04-30 22:21 -36.29201 169.36811 28556 ft 484 kts 274°
2026-04-30 22:22 -36.28587 169.28504 28560 ft 484 kts 274°
2026-04-30 22:22 -36.27967 169.20191 28561 ft 484 kts 274°
2026-04-30 22:23 -36.27342 169.11878 28558 ft 485 kts 274°
2026-04-30 22:23 -36.26710 169.03562 28566 ft 484 kts 274°
2026-04-30 22:24 -36.26073 168.95253 28566 ft 484 kts 274°
2026-04-30 22:24 -36.25431 168.86951 28563 ft 484 kts 274°
2026-04-30 22:25 -36.24783 168.78648 28567 ft 484 kts 274°
2026-04-30 22:25 -36.24129 168.70357 28564 ft 484 kts 274°
2026-04-30 22:26 -36.23135 168.57906 28551 ft 485 kts 274°
2026-04-30 22:27 -36.22467 168.49590 28555 ft 485 kts 274°
2026-04-30 22:27 -36.21455 168.37170 28558 ft 486 kts 274°
2026-04-30 22:28 -36.20425 168.24679 28542 ft 486 kts 275°
2026-04-30 22:29 -36.19032 168.08034 28543 ft 486 kts 275°
2026-04-30 22:31 -36.16537 167.78927 28560 ft 486 kts 274°
2026-04-30 22:32 -36.14713 167.58143 28542 ft 486 kts 275°
2026-04-30 22:33 -36.12848 167.37319 28551 ft 488 kts 276°
2026-04-30 22:35 -36.10941 167.16445 28550 ft 489 kts 276°
2026-04-30 22:36 -36.09002 166.95630 28548 ft 489 kts 275°
2026-04-30 22:37 -36.07424 166.78957 28547 ft 488 kts 275°
2026-04-30 22:38 -36.05825 166.62331 28542 ft 487 kts 276°
2026-04-30 22:39 -36.04613 166.49881 28541 ft 486 kts 276°
2026-04-30 22:40 -36.02149 166.24989 28542 ft 487 kts 276°
2026-04-30 22:41 -36.00053 166.04231 28540 ft 487 kts 276°
2026-04-30 22:43 -35.97646 165.80820 28544 ft 485 kts 276°
2026-04-30 22:44 -35.95921 165.64319 28537 ft 485 kts 277°
2026-04-30 22:45 -35.93287 165.39545 28541 ft 486 kts 276°
2026-04-30 22:47 -35.90601 165.14777 28539 ft 486 kts 276°
2026-04-30 22:48 -35.88790 164.98340 28537 ft 485 kts 277°
2026-04-30 22:49 -35.86022 164.73614 28535 ft 485 kts 277°
2026-04-30 22:51 -35.83200 164.48879 28539 ft 486 kts 277°
2026-04-30 22:52 -35.81769 164.36504 28536 ft 486 kts 277°
2026-04-30 22:53 -35.79837 164.19991 28538 ft 488 kts 277°
2026-04-30 22:53 -35.78371 164.07585 28536 ft 488 kts 278°
2026-04-30 22:55 -35.75903 163.86956 28541 ft 489 kts 278°
2026-04-30 22:56 -35.73894 163.70383 28537 ft 490 kts 277°
2026-04-30 22:57 -35.71351 163.49674 28534 ft 489 kts 278°
2026-04-30 22:58 -35.69293 163.33129 28533 ft 489 kts 278°
2026-04-30 22:59 -35.66164 163.08340 28531 ft 489 kts 278°